Time,TemperatureF,DewpointF,PressureIn,WindDirection,WindDirectionDegrees,WindSpeedMPH,WindSpeedGustMPH,Humidity,HourlyPrecipIn,Conditions,Clouds,dailyrainin,SoftwareType,DateUTC
2013-02-07 00:14:00,38.9,27.0,29.95,ESE,106,5.0,11.0,62,0.00,,,0.00,weatherlink.com 1.10,2013-02-07 08:14:00,
2013-02-07 00:29:00,38.7,26.0,29.95,ESE,117,2.0,9.0,61,0.00,,,0.00,weatherlink.com 1.10,2013-02-07 08:29:00,
2013-02-07 00:44:00,36.0,28.0,29.95,NE,49,1.0,5.0,72,0.00,,,0.00,weatherlink.com 1.10,2013-02-07 08:44:00,
2013-02-07 00:59:00,36.2,27.0,29.94,East,97,1.0,8.0,70,0.00,,,0.00,weatherlink.com 1.10,2013-02-07 08:59:00,
2013-02-07 01:14:00,37.5,27.0,29.94,NNE,27,0.0,7.0,67,0.00,,,0.00,weatherlink.com 1.10,2013-02-07 09:14:00,
2013-02-07 01:29:00,37.5,27.0,29.94,NNE,26,2.0,5.0,66,0.00,,,0.00,weatherlink.com 1.10,2013-02-07 09:29:00,
2013-02-07 01:44:00,36.5,27.0,29.94,NNW,332,1.0,7.0,69,0.00,,,0.00,weatherlink.com 1.10,2013-02-07 09:44:00,
2013-02-07 01:59:00,36.7,27.0,29.94,SE,128,0.0,6.0,67,0.00,,,0.00,weatherlink.com 1.10,2013-02-07 09:59:00,
2013-02-07 02:14:00,37.4,26.0,29.93,ESE,120,3.0,9.0,64,0.00,,,0.00,weatherlink.com 1.10,2013-02-07 10:14:00,
2013-02-07 02:29:00,37.7,26.0,29.93,SE,132,3.0,9.0,62,0.00,,,0.00,weatherlink.com 1.10,2013-02-07 10:29:00,
2013-02-07 02:44:00,37.2,26.0,29.92,NNE,18,1.0,5.0,65,0.00,,,0.00,weatherlink.com 1.10,2013-02-07 10:44:00,
2013-02-07 02:59:00,37.6,25.0,29.91,South,177,6.0,8.0,61,0.00,,,0.00,weatherlink.com 1.10,2013-02-07 10:59:00,
2013-02-07 03:14:00,37.6,25.0,29.91,East,96,2.0,8.0,61,0.00,,,0.00,weatherlink.com 1.10,2013-02-07 11:14:00,
2013-02-07 03:29:00,37.3,26.0,29.91,NE,37,1.0,3.0,63,0.00,,,0.00,weatherlink.com 1.10,2013-02-07 11:29:00,
2013-02-07 03:44:00,37.4,25.0,29.91,SE,127,0.0,11.0,61,0.00,,,0.00,weatherlink.com 1.10,2013-02-07 11:44:00,
2013-02-07 03:59:00,37.3,25.0,29.90,West,262,1.0,6.0,62,0.00,,,0.00,weatherlink.com 1.10,2013-02-07 11:59:00,
2013-02-07 04:14:00,36.4,25.0,29.90,NNW,335,0.0,5.0,63,0.00,,,0.00,weatherlink.com 1.10,2013-02-07 12:14:00,
2013-02-07 04:29:00,36.7,25.0,29.90,ESE,115,3.0,8.0,62,0.00,,,0.00,weatherlink.com 1.10,2013-02-07 12:29:00,
2013-02-07 04:44:00,37.3,24.0,29.90,East,91,0.0,3.0,60,0.00,,,0.00,weatherlink.com 1.10,2013-02-07 12:44:00,
2013-02-07 04:59:00,37.2,25.0,29.91,SSE,162,4.0,9.0,61,0.00,,,0.00,weatherlink.com 1.10,2013-02-07 12:59:00,
2013-02-07 05:14:00,37.5,25.0,29.91,NNW,327,0.0,8.0,60,0.00,,,0.00,weatherlink.com 1.10,2013-02-07 13:14:00,
2013-02-07 05:29:00,37.3,25.0,29.90,NNW,343,2.0,4.0,61,0.00,,,0.00,weatherlink.com 1.10,2013-02-07 13:29:00,
2013-02-07 05:45:00,37.8,25.0,29.91,SSW,207,2.0,7.0,60,0.00,,,0.00,weatherlink.com 1.10,2013-02-07 13:45:00,
2013-02-07 06:00:00,37.2,26.0,29.91,South,183,2.0,4.0,64,0.00,,,0.00,weatherlink.com 1.10,2013-02-07 14:00:00,
2013-02-07 06:15:00,37.7,25.0,29.91,ESE,106,2.0,4.0,60,0.00,,,0.00,weatherlink.com 1.10,2013-02-07 14:15:00,
2013-02-07 06:30:00,38.5,25.0,29.90,SE,141,1.0,7.0,58,0.00,,,0.00,weatherlink.com 1.10,2013-02-07 14:30:00,
2013-02-07 06:45:00,38.7,25.0,29.90,South,188,2.0,11.0,59,0.00,,,0.00,weatherlink.com 1.10,2013-02-07 14:45:00,
2013-02-07 07:00:00,37.2,26.0,29.91,SW,232,1.0,8.0,63,0.00,,,0.00,weatherlink.com 1.10,2013-02-07 15:00:00,
2013-02-07 07:15:00,35.6,26.0,29.91,ESE,112,0.0,1.0,68,0.00,,,0.00,weatherlink.com 1.10,2013-02-07 15:15:00,
2013-02-07 07:30:00,35.9,26.0,29.93,NNE,13,0.0,0.0,67,0.00,,,0.00,weatherlink.com 1.10,2013-02-07 15:30:00,
2013-02-07 07:45:00,36.4,26.0,29.93,SE,125,1.0,1.0,66,0.00,,,0.00,weatherlink.com 1.10,2013-02-07 15:45:00,
2013-02-07 08:00:00,37.3,26.0,29.93,SE,142,0.0,1.0,65,0.00,,,0.00,weatherlink.com 1.10,2013-02-07 16:00:00,
2013-02-07 08:15:00,37.3,27.0,29.93,SSW,204,3.0,6.0,66,0.00,,,0.00,weatherlink.com 1.10,2013-02-07 16:15:00,
2013-02-07 08:30:00,36.9,28.0,29.94,SSW,200,4.0,12.0,69,0.00,,,0.00,weatherlink.com 1.10,2013-02-07 16:30:00,
2013-02-07 08:45:00,37.1,29.0,29.94,South,176,7.0,11.0,72,0.00,,,0.00,weatherlink.com 1.10,2013-02-07 16:45:00,
2013-02-07 09:00:00,36.7,30.0,29.94,South,191,7.0,8.0,76,0.00,,,0.00,weatherlink.com 1.10,2013-02-07 17:00:00,
2013-02-07 09:15:00,36.5,30.0,29.94,South,174,6.0,8.0,77,0.00,,,0.00,weatherlink.com 1.10,2013-02-07 17:15:00,
2013-02-07 09:30:00,36.4,31.0,29.94,WSW,239,0.0,6.0,80,0.00,,,0.00,weatherlink.com 1.10,2013-02-07 17:30:00,
2013-02-07 09:45:00,35.4,30.0,29.95,NNW,330,0.0,1.0,82,0.00,,,0.00,weatherlink.com 1.10,2013-02-07 17:45:00,
2013-02-07 10:00:00,34.1,30.0,29.95,SE,124,0.0,3.0,84,0.00,,,0.00,weatherlink.com 1.10,2013-02-07 18:00:00,
2013-02-07 10:15:00,34.6,31.0,29.95,SSE,153,0.0,2.0,85,0.02,,,0.02,weatherlink.com 1.10,2013-02-07 18:15:00,
2013-02-07 10:30:00,35.0,31.0,29.94,NNE,22,2.0,3.0,86,0.03,,,0.03,weatherlink.com 1.10,2013-02-07 18:30:00,
2013-02-07 10:45:00,35.9,32.0,29.95,NW,304,2.0,5.0,85,0.03,,,0.03,weatherlink.com 1.10,2013-02-07 18:45:00,
2013-02-07 11:00:00,37.1,33.0,29.94,WSW,243,3.0,6.0,84,0.03,,,0.03,weatherlink.com 1.10,2013-02-07 19:00:00,
2013-02-07 11:15:00,37.2,33.0,29.94,SW,226,7.0,8.0,83,0.01,,,0.03,weatherlink.com 1.10,2013-02-07 19:15:00,
2013-02-07 11:30:00,38.0,33.0,29.94,WNW,302,5.0,6.0,83,0.00,,,0.03,weatherlink.com 1.10,2013-02-07 19:30:00,
2013-02-07 11:45:00,37.1,33.0,29.94,NNW,335,3.0,4.0,84,0.00,,,0.03,weatherlink.com 1.10,2013-02-07 19:45:00,
2013-02-07 12:00:00,36.7,33.0,29.93,East,94,1.0,3.0,85,0.00,,,0.03,weatherlink.com 1.10,2013-02-07 20:00:00,
2013-02-07 12:15:00,37.2,32.0,29.93,SSW,196,1.0,5.0,82,0.00,,,0.03,weatherlink.com 1.10,2013-02-07 20:15:00,
2013-02-07 12:30:00,37.6,33.0,29.93,SSE,156,0.0,7.0,82,0.00,,,0.03,weatherlink.com 1.10,2013-02-07 20:30:00,
2013-02-07 12:45:00,37.9,33.0,29.93,SSW,199,2.0,5.0,81,0.00,,,0.03,weatherlink.com 1.10,2013-02-07 20:45:00,
2013-02-07 13:00:00,38.0,33.0,29.93,SSW,193,5.0,6.0,81,0.00,,,0.03,weatherlink.com 1.10,2013-02-07 21:00:00,
2013-02-07 13:15:00,37.7,33.0,29.93,SSW,200,5.0,9.0,82,0.00,,,0.03,weatherlink.com 1.10,2013-02-07 21:15:00,
2013-02-07 13:30:00,36.9,32.0,29.93,South,187,6.0,11.0,83,0.00,,,0.03,weatherlink.com 1.10,2013-02-07 21:30:00,
2013-02-07 13:45:00,36.8,32.0,29.92,South,190,6.0,10.0,82,0.00,,,0.03,weatherlink.com 1.10,2013-02-07 21:45:00,
2013-02-07 14:00:00,37.0,32.0,29.93,SW,226,5.0,10.0,81,0.00,,,0.03,weatherlink.com 1.10,2013-02-07 22:00:00,
2013-02-07 14:15:00,37.0,32.0,29.93,SSW,208,6.0,8.0,82,0.00,,,0.03,weatherlink.com 1.10,2013-02-07 22:15:00,
2013-02-07 14:30:00,36.6,32.0,29.93,SSW,194,1.0,6.0,83,0.00,,,0.03,weatherlink.com 1.10,2013-02-07 22:30:00,
2013-02-07 14:45:00,36.0,32.0,29.93,SW,221,5.0,5.0,84,0.00,,,0.03,weatherlink.com 1.10,2013-02-07 22:45:00,
2013-02-07 15:00:00,35.7,32.0,29.94,SW,218,4.0,9.0,85,0.00,,,0.03,weatherlink.com 1.10,2013-02-07 23:00:00,
2013-02-07 15:15:00,35.5,32.0,29.94,SSW,205,5.0,7.0,86,0.00,,,0.03,weatherlink.com 1.10,2013-02-07 23:15:00,
2013-02-07 15:30:00,35.3,32.0,29.94,SSW,212,4.0,7.0,86,0.00,,,0.03,weatherlink.com 1.10,2013-02-07 23:30:00,
2013-02-07 15:45:00,35.2,31.0,29.94,SSW,194,3.0,7.0,86,0.00,,,0.03,weatherlink.com 1.10,2013-02-07 23:45:00,
2013-02-07 16:00:00,34.9,31.0,29.94,SSE,165,3.0,8.0,85,0.00,,,0.03,weatherlink.com 1.10,2013-02-08 00:00:00,
2013-02-07 16:15:00,34.9,31.0,29.94,SSE,153,2.0,6.0,84,0.00,,,0.03,weatherlink.com 1.10,2013-02-08 00:15:00,
2013-02-07 16:30:00,34.9,31.0,29.95,South,177,3.0,4.0,84,0.00,,,0.03,weatherlink.com 1.10,2013-02-08 00:30:00,
2013-02-07 16:45:00,34.8,30.0,29.95,SSE,156,3.0,5.0,83,0.00,,,0.03,weatherlink.com 1.10,2013-02-08 00:45:00,
2013-02-07 17:00:00,34.5,30.0,29.96,WSW,253,1.0,3.0,83,0.00,,,0.03,weatherlink.com 1.10,2013-02-08 01:00:00,
2013-02-07 17:15:00,34.7,30.0,29.96,South,181,3.0,6.0,82,0.00,,,0.03,weatherlink.com 1.10,2013-02-08 01:15:00,
2013-02-07 17:30:00,34.6,30.0,29.96,SSW,207,2.0,4.0,82,0.00,,,0.03,weatherlink.com 1.10,2013-02-08 01:30:00,
2013-02-07 17:45:00,34.4,29.0,29.96,South,183,2.0,3.0,82,0.00,,,0.03,weatherlink.com 1.10,2013-02-08 01:45:00,
2013-02-07 18:00:00,34.4,29.0,29.96,SSW,193,1.0,4.0,82,0.00,,,0.03,weatherlink.com 1.10,2013-02-08 02:00:00,
2013-02-07 18:15:00,34.4,30.0,29.97,SW,215,2.0,4.0,83,0.00,,,0.03,weatherlink.com 1.10,2013-02-08 02:15:00,
2013-02-07 18:30:00,34.1,30.0,29.97,SSW,207,3.0,5.0,85,0.00,,,0.03,weatherlink.com 1.10,2013-02-08 02:30:00,
2013-02-07 18:45:00,33.9,30.0,29.97,SSE,158,4.0,6.0,85,0.00,,,0.03,weatherlink.com 1.10,2013-02-08 02:45:00,
2013-02-07 19:00:00,33.7,30.0,29.97,SE,139,3.0,5.0,86,0.00,,,0.03,weatherlink.com 1.10,2013-02-08 03:00:00,
2013-02-07 19:16:00,33.7,30.0,29.97,SSE,161,2.0,5.0,85,0.00,,,0.03,weatherlink.com 1.10,2013-02-08 03:16:00,
2013-02-07 19:31:00,33.9,30.0,29.98,SW,218,0.0,3.0,85,0.00,,,0.03,weatherlink.com 1.10,2013-02-08 03:31:00,
2013-02-07 19:46:00,33.5,30.0,29.98,SW,228,1.0,2.0,86,0.00,,,0.03,weatherlink.com 1.10,2013-02-08 03:46:00,
2013-02-07 20:01:00,33.0,29.0,29.98,SSW,200,3.0,4.0,86,0.00,,,0.03,weatherlink.com 1.10,2013-02-08 04:01:00,
2013-02-07 20:16:00,32.6,29.0,29.99,SSW,198,2.0,4.0,87,0.00,,,0.03,weatherlink.com 1.10,2013-02-08 04:16:00,
2013-02-07 20:46:00,32.1,29.0,29.99,South,174,2.0,3.0,88,0.00,,,0.03,weatherlink.com 1.10,2013-02-08 04:46:00,
2013-02-07 21:01:00,31.9,29.0,30.00,SSE,162,3.0,3.0,89,0.00,,,0.03,weatherlink.com 1.10,2013-02-08 05:01:00,
2013-02-07 21:16:00,31.8,29.0,30.00,South,172,2.0,3.0,89,0.00,,,0.03,weatherlink.com 1.10,2013-02-08 05:16:00,
2013-02-07 21:31:00,31.6,29.0,30.00,SSE,165,2.0,2.0,89,0.00,,,0.03,weatherlink.com 1.10,2013-02-08 05:31:00,
2013-02-07 21:46:00,31.6,29.0,30.00,SSE,160,1.0,2.0,89,0.00,,,0.03,weatherlink.com 1.10,2013-02-08 05:46:00,
2013-02-07 22:01:00,31.5,29.0,30.01,SSE,158,1.0,3.0,89,0.00,,,0.03,weatherlink.com 1.10,2013-02-08 06:01:00,
2013-02-07 22:16:00,31.6,29.0,30.01,SSE,158,1.0,1.0,89,0.00,,,0.03,weatherlink.com 1.10,2013-02-08 06:16:00,
2013-02-07 22:31:00,31.7,29.0,30.01,SSE,156,1.0,1.0,89,0.00,,,0.03,weatherlink.com 1.10,2013-02-08 06:31:00,
2013-02-07 22:46:00,31.7,29.0,30.01,South,169,1.0,1.0,89,0.00,,,0.03,weatherlink.com 1.10,2013-02-08 06:46:00,
2013-02-07 23:01:00,31.7,29.0,30.02,South,169,1.0,1.0,89,0.00,,,0.03,weatherlink.com 1.10,2013-02-08 07:01:00,
2013-02-07 23:16:00,31.7,29.0,30.02,SSW,201,1.0,2.0,89,0.00,,,0.03,weatherlink.com 1.10,2013-02-08 07:16:00,
2013-02-07 23:31:00,31.6,29.0,30.02,SSW,204,0.0,1.0,89,0.00,,,0.03,weatherlink.com 1.10,2013-02-08 07:31:00,
2013-02-07 23:46:00,31.4,29.0,30.03,SSE,159,1.0,2.0,89,0.00,,,0.03,weatherlink.com 1.10,2013-02-08 07:46:00,